www.pogodaiklimat.ru

Погода и климат >> Архив погоды >> Казахстан >> Аккудук


АРХИВ ПОГОДЫ в Аккудуке

Время (UTC), дата Ветер
(напр.,м/с)
 
Видим.   Явления Облачность Т
(С)
Тd
(С)
f
(%)
Тe
(С)
Тes
(С)
Комфортность P
(гПа)
Po
(гПа)
Тmin
(С)
Tmax
(С)
R
(мм)
R24
(мм)
S
(см)
21 11.09 В 2 20 км 9/0
[Ac cast]
+20.0 +2.1 30 +21 +21 комфорт 1025.0 1015.5
00 12.09 В 3 20 км 9/0
[Ac cast]
+18.5 +4.6 40 +19 +19 1025.6 1016.0
03 12.09 С 2 20 км 9/9 600 м
[Cb cap]
+18.5 +2.3 34 +19 +19 1025.4 1014.8
06 12.09 С 5 20 км 9/3 600 м
[Cb cap As op]
+20.0 +1.7 30 +20 +21 1024.3 1015.0 +18.2
09 12.09 В 6 20 км 9/0
[Ac cuf]
+24.9 +1.9 22 +24 +26 комфорт 1023.7 1014.3
12 12.09 С 6 20 км {ливн. осадки} 9/4 600 м
[Cb cap Ac cuf]
+25.2 +1.9 22 +24 +24 комфорт 1021.8 1012.6
15 12.09 С 4 20 км 9/0
[Ac cuf]
+23.8 +1.1 22 +23 +23 комфорт 1021.6 1012.4 +25.5
18 12.09 С 4 20 км 10/8 600 м
[Cb cap As op]
+22.5 +0.2 23 +22 +22 комфорт 1022.2 1012.9 +25.5 0.0
21 12.09 С 4 20 км 10/6 600 м
[Cb cap As op]
+20.6 +2.5 30 +21 +21 комфорт 1022.1 1012.7
00 13.09 СВ 2 20 км 9/6 600 м
[Cb cap As op]
+18.5 +3.6 37 +19 +19 1021.7 1012.2
03 13.09 С 5 20 км слаб. ливневой дождь 10/8 600 м
[Cb cap As op]
+16.3 +11.5 73 +15 +15 1025.6 1013.0
06 13.09 С 9 20 км {ливн. осадки} 9/5 600 м
[Cb cap Ac cuf]
+19.0 +8.9 52 +19 +19 1023.1 1013.6 +16.3 0.0
09 13.09 С 7 20 км 9/4 600 м
[Cb cap Ac cuf]
+20.1 +8.6 47 +21 +22 комфорт 1022.2 1012.8
12 13.09 С 6 20 км 6/0
[Ac cuf]
+23.6 +4.5 29 +23 +24 комфорт 1020.7 1011.4
15 13.09 С 3 20 км 3/0
[Ac cuf]
+20.6 +5.5 37 +22 +22 комфорт 1021.2 1011.8 +23.7
18 13.09 С 4 20 км ясно +16.8 +7.0 52 +16 +16 1021.6 1012.1 +23.7 0.0
21 13.09 С 3 20 км ясно +15.6 +7.8 60 +15 +15 1022.0 1012.5
00 14.09 С 2 20 км ясно +14.5 +1.1 40 +14 +14 1022.2 1012.7
03 14.09 С 3 20 км ясно +15.2 +7.1 58 +15 +15 1021.7 1012.2
06 14.09 С 2 20 км ясно +22.0 +5.5 34 +22 +31 комфорт 1022.0 1012.8 +12.5
09 14.09 С 3 20 км 3/3 600 м
[Cu med, cong]
+25.6 +3.6 24 +25 +32 комфорт 1020.8 1011.6
12 14.09 С 3 20 км 3/3 600 м
[Cu med, cong]
+25.3 +3.0 23 +24 +27 комфорт 1019.8 1010.6
15 14.09 СЗ 5 20 км 3/3 1000 м
[Cu med, cong]
+22.8 +3.5 28 +23 +23 комфорт 1019.8 1010.6 +26.0
18 14.09 С 1 20 км ясно +16.0 +2.5 40 +17 +17 1020.2 1010.9 +26.0
21 14.09 С 3 20 км ясно +14.5 +2.7 45 +14 +14 1020.7 1011.3
00 15.09 С 2 20 км ясно +13.0 +2.9 50 +13 +13 1021.3 1011.8
03 15.09 З 1 20 км ясно +11.0 +1.5 52 +11 +12 1021.1 1011.6
06 15.09 В 3 20 км ясно +22.9 +1.9 25 +22 +29 комфорт 1021.5 1012.2 +9.5
09 15.09 З 3 20 км ясно +27.1 0.0 17 +25 +35 комфорт 1020.4 1011.2
12 15.09 Ю 3 20 км ясно +28.1 -0.9 15 +26 +29 жарко 1018.5 1009.5
15 15.09 Ю 2 20 км ясно +24.9 -0.5 19 +23 +23 комфорт 1018.1 1009.1 +28.4
18 15.09 В 7 20 км ясно +21.6 +1.1 26 +21 +21 комфорт 1019.4 1010.2 +28.4
21 15.09 ЮВ 3 20 км ясно +19.1 +1.7 31 +20 +20 1021.1 1010.8
00 16.09 ЮВ 2 20 км ясно +16.6 +2.1 38 +17 +17 1020.6 1011.2
03 16.09 С 1 20 км ясно +11.5 +0.4 46 +12 +12 1020.2 1010.6
06 16.09 С 2 20 км 3/3 600 м
[Cu med, cong]
+25.9 +0.6 19 +24 +30 комфорт 1020.3 1011.0 +10.8
09 16.09 Ю 6 20 км 1/1 600 м
[Cu hum]
+28.2 +3.2 20 +26 +31 жарко 1018.7 1009.6
12 16.09 В 5 20 км 1/1 600 м
[Cu med, cong]
+29.4 +5.9 23 +28 +30 жарко 1016.4 1007.4
15 16.09 ЮЗ 4 20 км 1/0
[Ci fib]
+26.1 +4.5 25 +25 +25 комфорт 1015.5 1006.5 +29.7
18 16.09 ЮЗ 4 20 км ясно +20.4 +5.5 38 +21 +21 комфорт 1015.8 1006.5 +29.7
21 16.09 З 2 20 км ясно +19.0 +6.1 43 +20 +20 1015.1 1005.7
00 17.09 ЮЗ 2 20 км ясно +17.5 +6.4 48 +18 +18 1014.5 1005.0
03 17.09 З 1 20 км ясно +13.1 +6.2 63 +13 +14 1014.3 1004.7
06 17.09 ЮЗ 6 20 км ясно +26.8 -0.2 17 +25 +28 комфорт 1013.3 1004.2 +12.3
09 17.09 З 10 20 км ясно +32.8 -1.2 11 +29 +30 жарко 1010.0 1001.0
12 17.09 ЮЗ 11 20 км ясно +34.4 -1.4 10 +31 +31 жарко 1006.7 978.8
15 17.09 З 4 20 км ясно +27.6 +0.9 18 +26 +26 жарко 1006.5 997.5 +34.7
18 17.09 ЮЗ 6 20 км ясно +23.2 +1.3 24 +22 +22 комфорт 1007.0 997.9 +34.7
21 17.09 ЮЗ 2 20 км ясно +21.8 +3.6 30 +22 +22 комфорт 1007.6 998.5
00 18.09 З 5 20 км ясно +20.3 +6.4 40 +21 +21 комфорт 1008.4 999.1
03 18.09 ЮВ 7 20 км ясно +19.7 +15.0 74 +21 +21 комфорт 1009.3 999.8
06 18.09 СВ 9 20 км ясно +25.5 +11.4 41 +27 +28 жарко 1011.2 1001.9 +18.4
09 18.09 С 9 20 км ясно +28.6 +8.9 29 +28 +30 жарко 1012.4 1003.2
12 18.09 В 9 20 км ясно +29.8 +7.6 25 +29 +29 жарко 1012.9 1003.9
15 18.09 ЮВ 4 20 км ясно +26.0 +7.1 30 +26 +26 жарко 1014.2 1005.1 +30.0
18 18.09 З 8 20 км ясно +21.8 +12.3 55 +24 +24 комфорт 1015.3 1006.0 +30.0

 

Местоположение метеостанции Аккудук (Мангистауская область, Казахстан): широта 42.97 долгота 54.12 высота над уровнем моря 78 м.

В архиве по умолчанию представлена погода в Аккудуке за последнюю неделю. Архивные данные за месяц целиком и за предыдущие месяцы, начиная с января 2011 года, Вы можете получить, выбрав интересующий диапазон дат из раскрывающегося списка и нажав кнопку "Ввод!".


*Определитесь, кто Вы:
робот инопланетянин человек

Внимание! Время в таблицах - всемирное. Для получения местного времени необходимо прибавить поправку, которая равна 5 ч.

Смотрите также архив погоды в соседних городах и на ближайших метеорологических станциях:

Погода в Болашаке (Мангистауская область, Казахстан) (79 км)
Погода в Жанаозене (Мангистауская область, Казахстан) (113 км)
Погода в Сай-Утесе (Мангистауская область, Казахстан) (156 км)
Погода в Жетыбае (Мангистауская область, Казахстан) (177 км)
Погода в Тущыбеке (Мангистауская область, Казахстан) (219 км)
Погода в Кара-Богаз-Келе (Балканский велаят, Туркменистан) (235 км)
Погода в Актау (Мангистауская область, Казахстан) (255 км)
Погода в Кызане (Мангистауская область, Казахстан) (261 км)
Погода в Чагыле (Балканский велаят, Туркменистан) (263 км)
Погода в Каракалпакии (Каракалпакстан, Узбекистан) (274 км)

Пояснения к столбцам:

Ветер - указаны скорость ветра в м/с - средняя за 10 мин, порывы в срок и между сроками (в фигурных скобках) и направление, откуда дует ветер: С - северный, СВ - северо-восточный, В - восточный, ЮВ - юго-восточный, Ю - южный, ЮЗ - юго-западный, З - западный, СЗ - северо-западный.
Видимость - горизонтальная дальность видимости в метрах или километрах. При видимости от 1 до 10 км при отсутствии осадков обычно наблюдается дымка, при ухудшении видимости до 1 км и менее - туман. В сухую погоду видимость может ухудшаться дымом, пылью или мглою.
Явления - указаны атмосферные явления, наблюдавшиеся в срок или в последний час перед сроком; фигурными скобками обозначены явления, наблюдавшиеся между сроками (за 1-3 часа до срока); квадратными скобками обозначены град или гололедные отложения с указанием их диаметра в мм.
Облачность - указаны через наклонную черту общая и нижняя облачность в баллах и высота нижней границы облаков в метрах; квадратными скобками обозначены формы облаков: Ci - перистые, Cs - перисто-слоистые, Cc - перисто-кучевые, Ac - высококучевые, As - высокослоистые, Sc - слоисто-кучевые, Ns - слоисто-дождевые, Cu - кучевые, Cb - кучево-дождевые. Подробнее классификацию облаков см. в Атласе облаков (PDF).
T - Температура воздуха - температура, измеренная на высоте 2 м над землей.
Td - Температура точки росы - температура, при понижении до которой содержащийся в воздухе водяной пар достигнет насыщения.
f - Относительная влажность воздуха - влажноcть воздуха, измеренная на высоте 2 м над землей.
Te - Эффективная температура - температура, которую ощущает одетый по сезону человек в тени. Характеристика душности погоды. При расчете учитывается влияние влажности воздуха и скорости ветра на теплоощущения человека.
Tes - Эффективная температура на солнце - температура, которую ощущает человек, с поправкой на солнечный нагрев. Характеристика знойности погоды. Зависит от высоты солнца над горизонтом, облачности и скорости ветра. Ночью, в пасмурную погоду, а также при ветре 12 м/с и более поправка равна нулю.
P - Атмосферное давление - приведенное к уровню моря атмосферное давление.
Po - Атмосферное давление - измеренное на уровне метеостанции атмосферное давление.
Tmin - Минимальная температура - минимум температуры воздуха на высоте 2 м над землей.
Tmax - Максимальная температура - максимум температуры воздуха на высоте 2 м над землей.
R - Количество осадков - Количество выпавших осадков за период времени, мм. При наведении курсора мыши на число - период времени, за который выпало указанное количество осадков.
R24 - Количество осадков - Количество выпавших осадков за 24 часа, мм.
S - Снежный покров - Высота снежного покрова, см. При наведении курсора мыши на число - состояние снежного покрова и степень покрытия местности в баллах.